DECAYED
Showing default

FLOCK 4Q 21, 58329 (Decayed)

Orbit data source: Space-Track

FLOCK 4Q 21, 58329 was a payload satellite owned by Planet (US) in LEO that was launched on Sat, 11 Nov 2023 UTC via an FALCON 9 launch vehicle from the Air Force Western Test Range (AFWTR). Payload-class satellites include a variety of spacecraft equipped with specific instruments for various scientific and technological missions. These include communications satellites like Starlink; space stations such as the ISS; scientific satellites like the Hubble; Earth observation satellites from companies like Planet Labs, Umbra, and HawkEye 360; GPS; miniature CubeSats for education and research; and military/defense satellites.

Not visible in the next 10 days
Identifier
58329, 2023-174CB
Orbit
Decayed
Country
Flag of USUS
Related business
Manufacturer
Planet
Mission
Decayed Commercial Imaging
Bus & Motor
CUBESAT 3U, Unknown motor
Mass
5.7 kg wet, 5.7 kg dry
Launch date (UTC)
2023-11-11 (3 years ago)
Launch vehicle
FALCON 9
Launch site
Air Force Western Test Range (AFWTR)
Object type
Payload
Rocket body
Debris
Shape & HBR
Box + 2 Pan, 1.0 m
Radar Cross Section
0.072 m², Medium (>0.1 m² and < 1m²)

Expand to show TLE details & history
Last TLE update: 3 months ago

TLE from 3 months ago
0 FLOCK 4Q 21
1 58329U 23174CB  26172.45888970  .04515476  24480-5  15467-2 0  9991
2 58329  97.3690 270.0940 0015537 272.8175  87.1339 16.25159352146807
Epoch: 2026-06-21T11:00Z
TLE epoch observation values (Epoch: 2026-06-21T11:00:48.070Z)
Latitude
0.00007°
Longitude
-164.76516°
Altitude
208.318 km
Speed
7.782 km/s
True Right ascension
18h 00m 22s
True Declination
0° 00' 00"
Sunlit
Object was in full shadow at epoch
Visualization orbit readout
Latitude
Unknown
Longitude
Unknown
Altitude
Unknown
Speed
Unknown
Apparent Right ascension
Unknown
Apparent Declination
Unknown
Sunlit
N/A
Visualization observer readout
Local Sidereal Time
23:14:03
Azimuth
Unknown
Elevation
Unknown
Doppler factor
Unknown
Orbital elements
Apogee altitude
212.63 km
Perigee altitude
192.182 km
Semi-major axis
6,580.543 km
Eccentricity
0.00155
Inclination
97.369°
RAAN
270.094°
Arg. of periapsis
272.8175°
True anomaly
87.31174°
Mean anomaly
87.1339°
Eccentric anomaly
87.22282°
Mean motion
4.06584 °/min
Orbital period
88.54 mins
BSTAR
0.0015467
Loading maneuver chart data...
Computing Atmospheric mass density...
Loading historical data...
Loading historical data...
Loading historical data...
Loading historical data...
Loading historical data...
Loading historical data...
Loading historical data...

Documentation

Showing up to 5 results
|